Location: Riverside
(39.1734°N, 77.8561°W)
Time: 15:01:44
(UTC+00:00)

Hubble Space Telescope - Pass Details

Date: 24 November 2019
Orbit: 536 x 540 km, 28.5° (Epoch: 06 December)

Event Time Altitude Azimuth Distance (km) Brightness Sun altitude
Rises 23:33:07 0° 248° (WSW) 2,669 5.8 -19.4°
Reaches altitude 10° 23:35:58 10° 228° (SW) 1,778 4.2 -20.0°
Maximum altitude 23:38:41 17° 186° (S) 1,382 3.0 -20.5°
Enters shadow 23:40:17 14° 159° (SSE) 1,528 3.0 -20.8°
